TimeCST,TemperatureF,Dew PointF,Humidity,Sea Level PressureIn,VisibilityMPH,Wind Direction,Wind SpeedMPH,Gust SpeedMPH,PrecipitationIn,Events,Conditions,WindDirDegrees,DateUTC
12:15 AM,8.6,1.4,73,30.20,10.0,NE,5.8,-,N/A,,Overcast,50,2014-01-08 06:15:00
12:55 AM,8.6,3.2,79,30.21,10.0,NE,4.6,-,N/A,,Overcast,50,2014-01-08 06:55:00
1:15 AM,8.6,1.4,73,30.21,10.0,NE,6.9,-,N/A,,Overcast,40,2014-01-08 07:15:00
1:35 AM,8.6,1.4,73,30.22,10.0,NNE,4.6,-,N/A,,Overcast,30,2014-01-08 07:35:00
1:55 AM,8.6,1.4,73,30.23,10.0,NNE,6.9,-,N/A,,Overcast,20,2014-01-08 07:55:00
2:15 AM,6.8,1.4,79,30.24,10.0,North,6.9,-,N/A,,Overcast,10,2014-01-08 08:15:00
2:35 AM,6.8,1.4,79,30.24,10.0,NE,5.8,-,N/A,,Overcast,40,2014-01-08 08:35:00
2:55 AM,6.8,1.4,79,30.25,10.0,NNE,6.9,-,N/A,,Overcast,30,2014-01-08 08:55:00
3:15 AM,6.8,1.4,79,30.24,10.0,NE,4.6,-,N/A,,Overcast,40,2014-01-08 09:15:00
3:35 AM,6.8,-2.2,67,30.25,10.0,NNE,6.9,-,N/A,,Overcast,30,2014-01-08 09:35:00
3:55 AM,6.8,-2.2,67,30.25,10.0,NE,5.8,-,N/A,,Overcast,50,2014-01-08 09:55:00
4:15 AM,5.0,-2.2,72,30.25,10.0,ENE,5.8,-,N/A,,Overcast,60,2014-01-08 10:15:00
4:35 AM,5.0,-4.0,66,30.25,10.0,ENE,4.6,-,N/A,,Mostly Cloudy,60,2014-01-08 10:35:00
4:55 AM,5.0,-4.0,66,30.26,10.0,NE,4.6,-,N/A,,Overcast,50,2014-01-08 10:55:00
5:15 AM,5.0,-4.0,66,30.26,10.0,ENE,5.8,-,N/A,,Scattered Clouds,60,2014-01-08 11:15:00
5:35 AM,3.2,-4.0,72,30.26,10.0,NE,8.1,-,N/A,,Clear,50,2014-01-08 11:35:00
5:55 AM,3.2,-4.0,72,30.26,10.0,East,4.6,-,N/A,,Clear,90,2014-01-08 11:55:00
6:15 AM,3.2,-4.0,72,30.27,10.0,East,5.8,-,N/A,,Clear,90,2014-01-08 12:15:00
6:35 AM,3.2,-4.0,72,30.27,10.0,East,4.6,-,N/A,,Clear,80,2014-01-08 12:35:00
6:55 AM,3.2,-4.0,72,30.28,10.0,ENE,4.6,-,N/A,,Clear,70,2014-01-08 12:55:00
7:15 AM,3.2,-4.0,72,30.29,10.0,East,5.8,-,N/A,,Clear,80,2014-01-08 13:15:00
7:35 AM,3.2,-4.0,72,30.30,10.0,East,5.8,-,N/A,,Scattered Clouds,80,2014-01-08 13:35:00
7:55 AM,3.2,-4.0,72,30.31,10.0,East,5.8,-,N/A,,Overcast,80,2014-01-08 13:55:00
8:15 AM,3.2,-4.0,72,30.31,10.0,ENE,6.9,-,N/A,,Overcast,70,2014-01-08 14:15:00
8:35 AM,3.2,-4.0,72,30.32,10.0,ENE,6.9,-,N/A,,Overcast,70,2014-01-08 14:35:00
8:55 AM,5.0,-4.0,66,30.34,10.0,ENE,6.9,-,N/A,,Overcast,70,2014-01-08 14:55:00
9:15 AM,3.2,-4.0,72,30.35,10.0,East,8.1,-,N/A,,Overcast,90,2014-01-08 15:15:00
9:35 AM,3.2,-4.0,72,30.35,10.0,ENE,9.2,-,N/A,,Scattered Clouds,70,2014-01-08 15:35:00
9:55 AM,5.0,-4.0,66,30.36,10.0,ENE,8.1,-,N/A,,Mostly Cloudy,60,2014-01-08 15:55:00
10:15 AM,5.0,-4.0,66,30.37,10.0,East,8.1,-,N/A,,Overcast,80,2014-01-08 16:15:00
10:35 AM,5.0,-4.0,66,30.37,10.0,ENE,6.9,-,N/A,,Overcast,70,2014-01-08 16:35:00
10:55 AM,5.0,-2.2,72,30.37,10.0,NE,8.1,-,N/A,,Overcast,50,2014-01-08 16:55:00
11:15 AM,6.8,-2.2,67,30.36,10.0,ENE,6.9,-,N/A,,Overcast,60,2014-01-08 17:15:00
11:35 AM,6.8,-2.2,67,30.36,10.0,ENE,5.8,-,N/A,,Overcast,70,2014-01-08 17:35:00
11:55 AM,6.8,-2.2,67,30.35,10.0,East,5.8,-,N/A,,Overcast,80,2014-01-08 17:55:00
12:15 PM,8.6,-0.4,67,30.35,10.0,East,5.8,-,N/A,,Overcast,100,2014-01-08 18:15:00
12:35 PM,8.6,-0.4,67,30.35,10.0,Calm,Calm,-,N/A,,Overcast,0,2014-01-08 18:35:00
12:55 PM,8.6,-0.4,67,30.34,10.0,East,4.6,-,N/A,,Overcast,80,2014-01-08 18:55:00
1:15 PM,10.4,-0.4,62,30.34,10.0,East,3.5,-,N/A,,Overcast,90,2014-01-08 19:15:00
1:35 PM,10.4,-0.4,62,30.34,10.0,ESE,4.6,-,N/A,,Overcast,110,2014-01-08 19:35:00
1:55 PM,10.4,-0.4,62,30.34,10.0,ESE,4.6,-,N/A,,Mostly Cloudy,110,2014-01-08 19:55:00
2:15 PM,10.4,-0.4,62,30.33,10.0,ESE,4.6,-,N/A,,Mostly Cloudy,120,2014-01-08 20:15:00
2:35 PM,10.4,-0.4,62,30.33,10.0,East,6.9,-,N/A,,Mostly Cloudy,90,2014-01-08 20:35:00
2:55 PM,10.4,1.4,67,30.34,10.0,East,5.8,-,N/A,,Mostly Cloudy,90,2014-01-08 20:55:00
3:15 PM,10.4,1.4,67,30.34,10.0,East,5.8,-,N/A,,Clear,80,2014-01-08 21:15:00
3:35 PM,10.4,-0.4,62,30.35,10.0,East,4.6,-,N/A,,Partly Cloudy,90,2014-01-08 21:35:00
3:55 PM,10.4,-0.4,62,30.35,10.0,East,4.6,-,N/A,,Freezing Rain,90,2014-01-08 21:55:00
4:15 PM,10.4,1.4,67,30.35,10.0,ESE,5.8,-,N/A,,Overcast,110,2014-01-08 22:15:00
4:35 PM,10.4,1.4,67,30.35,10.0,ESE,4.6,-,N/A,,Scattered Clouds,110,2014-01-08 22:35:00
4:55 PM,8.6,-0.4,67,30.34,10.0,ESE,5.8,-,N/A,,Clear,120,2014-01-08 22:55:00
5:15 PM,6.8,-0.4,72,30.34,9.0,SE,5.8,-,N/A,,Clear,130,2014-01-08 23:15:00
5:35 PM,6.8,-0.4,72,30.35,10.0,ESE,5.8,-,N/A,,Clear,120,2014-01-08 23:35:00
5:55 PM,6.8,-0.4,72,30.35,10.0,ESE,5.8,-,N/A,,Clear,110,2014-01-08 23:55:00
6:15 PM,5.0,-2.2,72,30.35,10.0,East,8.1,-,N/A,,Clear,100,2014-01-09 00:15:00
6:35 PM,5.0,-2.2,72,30.35,10.0,ESE,6.9,-,N/A,,Clear,120,2014-01-09 00:35:00
6:55 PM,5.0,-2.2,72,30.35,10.0,ESE,5.8,-,N/A,,Scattered Clouds,120,2014-01-09 00:55:00
7:15 PM,5.0,-2.2,72,30.35,10.0,ESE,8.1,-,N/A,,Mostly Cloudy,120,2014-01-09 01:15:00
7:35 PM,6.8,-0.4,72,30.36,10.0,ESE,8.1,-,N/A,,Overcast,120,2014-01-09 01:35:00
7:55 PM,6.8,1.4,79,30.35,10.0,SE,8.1,-,N/A,,Overcast,130,2014-01-09 01:55:00
8:15 PM,8.6,1.4,73,30.35,10.0,SE,9.2,-,N/A,,Overcast,130,2014-01-09 02:15:00
8:35 PM,8.6,1.4,73,30.36,10.0,SE,8.1,-,N/A,,Overcast,130,2014-01-09 02:35:00
8:55 PM,8.6,1.4,73,30.36,10.0,ESE,9.2,-,N/A,,Overcast,120,2014-01-09 02:55:00
9:15 PM,8.6,1.4,73,30.35,10.0,ESE,10.4,-,N/A,,Overcast,120,2014-01-09 03:15:00
9:35 PM,8.6,1.4,73,30.35,10.0,SE,9.2,-,N/A,,Overcast,130,2014-01-09 03:35:00
9:55 PM,8.6,1.4,73,30.34,10.0,SE,10.4,-,N/A,,Overcast,130,2014-01-09 03:55:00
10:15 PM,8.6,1.4,73,30.34,10.0,SE,11.5,-,N/A,,Overcast,130,2014-01-09 04:15:00
10:35 PM,8.6,1.4,73,30.34,10.0,SE,10.4,-,N/A,,Overcast,140,2014-01-09 04:35:00
10:55 PM,8.6,1.4,73,30.33,10.0,SE,11.5,-,N/A,,Overcast,140,2014-01-09 04:55:00
11:15 PM,8.6,3.2,79,30.32,10.0,SSE,15.0,-,N/A,,Overcast,150,2014-01-09 05:15:00
11:35 PM,8.6,3.2,79,30.32,10.0,SSE,13.8,-,N/A,,Overcast,150,2014-01-09 05:35:00
11:55 PM,8.6,3.2,79,30.32,10.0,SSE,13.8,-,N/A,,Overcast,160,2014-01-09 05:55:00